Home > Weather > Boulder > Past weeks

Flag for U.S.A. Weather for the Past 2 Weeks in Boulder, Colorado, U.S.A.

Now
36 °F

Partly cloudy.


Feels Like: 30 °F
Forecast: 33 / 57 °F
Wind: 7 mph from Northwest

Location: Broomfield / Jeffco

Current Time: Feb 12, 2016 at 8:00:36 AM

Latest Report: Feb 12, 2016 at 6:45 AM


Visibility: 60 mi

Pressure: 30.27 "Hg (24.74 "Hg at 1623m altitude)

Humidity: 70%

Dew point: 27 °F

Location of BoulderLocation

Historic Weather in Boulder — Graph

°F

Boulder Temperature Yesterday

Maximum temperature yesterday: 64 °F (at 1:58 PM)
Minimum temperature yesterday: 41 °F (at 10:36 PM)
Average temperature yesterday: 50 °F

High & Low Weather Summary for the Past Weeks

 TemperatureHumidityPressure
High68 °F (Feb 10, 12:50 PM)100% (Jan 30, 10:16 PM)30.41 "Hg (Jan 30, 10:16 PM)
Low12 °F (Feb 3, 4:36 AM)10% (Feb 10, 12:50 PM)29.45 "Hg (Jan 30, 1:45 PM)
Average36 °F52%30.04 "Hg
* Reported Jan 28 6:45 AM — Feb 12 6:45 AM, Boulder, Weather by CustomWeather, © 2016

Note: Actual official high and low records may vary slightly from our data, if they occured in-between our weather recording intervals... More about our weather records

Advertising

Boulder Weather History for the Previous 24 Hours

 ConditionsComfort  
Time TempWeatherWind HumidityBarometerVisibility
6:45 AM
Fri, Feb 12
36 °FPartly cloudy.7 mph70%30.27 "Hg60 mi
5:46 AM36 °FPassing clouds.6 mph65%30.27 "Hg20 mi
4:56 AM36 °FClear.7 mph70%30.25 "Hg10 mi
4:36 AM36 °FClear.No wind70%30.26 "Hg10 mi
4:16 AM37 °FClear.9 mph65%30.26 "Hg10 mi
3:56 AM36 °FClear.16 mph70%30.26 "Hg10 mi
3:36 AM36 °FClear.14 mph70%30.28 "Hg10 mi
3:16 AM36 °FClear.12 mph70%30.27 "Hg10 mi
2:56 AM37 °FClear.12 mph65%30.28 "Hg10 mi
2:36 AM37 °FClear.10 mph65%30.27 "Hg10 mi
2:16 AM36 °FClear.5 mph70%30.26 "Hg10 mi
1:56 AM37 °FClear.3 mph65%30.26 "Hg10 mi
1:36 AM39 °FClear.3 mph61%30.25 "Hg10 mi
1:16 AM39 °FClear.5 mph61%30.25 "Hg10 mi
12:56 AM41 °FClear.6 mph57%30.25 "Hg10 mi
12:36 AM41 °FClear.6 mph57%30.25 "Hg10 mi
12:16 AM41 °FClear.8 mph57%30.25 "Hg10 mi
11:56 PM
Thu, Feb 11
41 °FClear.7 mph57%30.25 "Hg10 mi
11:36 PM41 °FClear.7 mph57%30.26 "Hg10 mi
11:15 PM43 °FClear.6 mph53%30.26 "Hg10 mi
10:55 PM43 °FClear.No wind53%30.26 "Hg10 mi
10:36 PM41 °FClear.5 mph57%30.25 "Hg10 mi
9:58 PM45 °FPassing clouds.6 mph49%30.27 "Hg30 mi
8:55 PM45 °FPassing clouds.5 mph46%30.26 "Hg30 mi
7:45 PM46 °FPassing clouds.5 mph43%30.27 "Hg30 mi
6:45 PM48 °FPassing clouds.6 mph40%30.25 "Hg30 mi
5:45 PM52 °FPassing clouds.9 mph35%30.22 "Hg60 mi
4:48 PM61 °FPartly sunny.22 mph20%30.17 "Hg60 mi
3:45 PM59 °FPartly sunny.12 mph23%30.14 "Hg60 mi
1:58 PM64 °FPartly sunny.23 mph16%30.12 "Hg60 mi
12:55 PM63 °FPartly sunny.15 mph16%30.13 "Hg60 mi
11:45 AM63 °FPartly sunny.18 mph16%30.15 "Hg60 mi
10:45 AM63 °FPartly sunny.17 mph14%30.15 "Hg70 mi
9:45 AM59 °FPartly sunny.8 mph14%30.16 "Hg70 mi
8:45 AM54 °FPartly sunny.9 mph19%30.16 "Hg70 mi
Weather by CustomWeather, © 2016

See weather overviewHow to use our weather pages